Location: *
(43.9905°S, 176.4941°W)
Time: 06:03:49
(UTC+00:00)

Terra - Pass Details

Date: 08 December 2019
Orbit: 701 x 703 km, 98.2° (Epoch: 21 January)

Event Time Altitude Azimuth Distance (km) Brightness Sun altitude
Rises 10:20:39 0° 163° (SSE) 3,132 6.0 -21.0°
Reaches altitude 10° 10:22:58 10° 159° (SSE) 2,205 5.1 -21.1°
Maximum altitude 10:27:45 58° 80° (E) 833 2.0 -21.4°
Enters shadow 10:28:32 51° 40° (NE) 899 1.9 -21.4°
